Overview Statistics Trail Chart Weather Telemetry Raw packets
 

This is the latest recevied weather packets stored in our database for station/object KQ7A. If no packets are shown the sender has not sent any weather packets the latest 10 day(s).

<< 23 24 25 26 27 28 29 >>
Time Temp. Humidity Pressure Rain* Wind** Luminosity Snow
1788521106 15.56° C 50% 1012 hPa 0 mm - 0 W/m² -
1788520801 16.11° C 48% 1011.8 hPa 0 mm - 0 W/m² -
1788520496 15.56° C 50% 1011.8 hPa 0 mm - 0 W/m² -
1788520192 16.11° C 50% 1012.1 hPa 0 mm - 0 W/m² -
1788519891 16.11° C 47% 1012.2 hPa 0 mm - 0 W/m² -
1788519580 16.11° C 49% 1012.3 hPa 0 mm - 0 W/m² -
1788519275 15.56° C 52% 1012.2 hPa 0 mm - 0 W/m² -
1788518965 15.56° C 51% 1012.2 hPa 0 mm - 0 W/m² -
1788518665 15.56° C 49% 1012 hPa 0 mm - 0 W/m² -
1788518362 16.11° C 48% 1012.1 hPa 0 mm - 0 W/m² -
1788518057 16.11° C 48% 1011.8 hPa 0 mm - 0 W/m² -
1788517753 16.11° C 48% 1012 hPa 0 mm - 0 W/m² -
1788517448 15.56° C 50% 1012.2 hPa 0 mm - 0 W/m² -
1788517144 16.11° C 49% 1012 hPa 0 mm - 0 W/m² -
1788516840 16.11° C 49% 1012 hPa 0 mm - 0 W/m² -
1788516535 15.56° C 50% 1012.1 hPa 0 mm - 0 W/m² -
1788516231 15.56° C 50% 1012.3 hPa 0 mm - 0 W/m² -
1788515925 16.11° C 51% 1012.1 hPa 0 mm - 0 W/m² -
1788515620 15.56° C 50% 1012.2 hPa 0 mm - 0 W/m² -
1788515315 16.11° C 51% 1012.2 hPa 0 mm - 0 W/m² -
1788515011 16.11° C 50% 1012.4 hPa 0 mm - 0 W/m² -
1788514706 15.56° C 50% 1012.2 hPa 0 mm - 0 W/m² -
1788514401 15.56° C 52% 1012.2 hPa 0 mm - 0 W/m² -
1788514096 15.56° C 50% 1012.2 hPa 0 mm - 0 W/m² -
1788513793 15.56° C 50% 1012.3 hPa 0 mm - 0 W/m² -

* Rain latest hour (hover to see other rain measurements)
** Current wind speed in m/s (hover to see current wind gust speed)